When you browse on this site, cookies collect data to enhance your experience and personalize the content and advertising you see.
Visit our Privacy Policy to learn more. By continuing to use the site, you agree to this use of cookies and data.
  • In United Kingdom
  • List of Countries
  • For 7 days
  • Water Temperature
  • Weather Map
  • Weather Widgets
  • user-avatar
    Login

    Hourly Weather Aberystwyth

    Today, 29 May, Friday

    Time Temperature Precipitation Wind Pressure Humidity
    00:00 +12°C° 0 mm 4 mps 764 mmHg 83%
    01:00 +11°C° 0 mm 3 mps 764 mmHg 80%
    02:00 +11°C° 0 mm 3 mps 763 mmHg 78%
    03:00 +10°C° 0 mm 3 mps 763 mmHg 75%
    04:00 +10°C° 0 mm 3 mps 763 mmHg 74%
    05:00 +11°C° 0 mm 3 mps 763 mmHg 72%
    06:00 +11°C° 0 mm 3 mps 763 mmHg 71%
    07:00 +13°C° 0 mm 3 mps 763 mmHg 68%
    08:00 +16°C° 0 mm 3 mps 763 mmHg 64%
    09:00 +18°C° 0 mm 3 mps 763 mmHg 61%
    10:00 +19°C° 0 mm 4 mps 762 mmHg 61%
    11:00 +20°C° 0 mm 4 mps 762 mmHg 61%
    12:00 +21°C° 0 mm 4 mps 762 mmHg 60%
    13:00 +21°C° 0 mm 4 mps 762 mmHg 61%
    14:00 +21°C° 0 mm 4 mps 761 mmHg 62%
    15:00 +21°C° 0 mm 4 mps 761 mmHg 63%
    16:00 +21°C° 0 mm 4 mps 760 mmHg 67%
    17:00 +21°C° 0 mm 4 mps 760 mmHg 70%
    18:00 +20°C° 0 mm 3 mps 760 mmHg 74%
    19:00 +18°C° 0 mm 3 mps 760 mmHg 80%
    20:00 +17°C° 0 mm 3 mps 760 mmHg 86%
    21:00 +14°C° 0 mm 4 mps 760 mmHg 91%
    22:00 +13°C° 0 mm 4 mps 760 mmHg 90%
    23:00 +13°C° 0 mm 4 mps 760 mmHg 89%

    Tomorrow, 30 May, Saturday

    Time Temperature Precipitation Wind Pressure Humidity
    00:00 +12°C° 0 mm 4 mps 761 mmHg 87%
    01:00 +11°C° 0 mm 3 mps 760 mmHg 86%
    02:00 +11°C° 0 mm 3 mps 760 mmHg 86%
    03:00 +10°C° 0 mm 3 mps 760 mmHg 85%
    04:00 +11°C° 0 mm 3 mps 760 mmHg 83%
    05:00 +11°C° 0 mm 3 mps 760 mmHg 81%
    06:00 +11°C° 0 mm 3 mps 760 mmHg 80%
    07:00 +13°C° 0 mm 3 mps 760 mmHg 72%
    08:00 +14°C° 0 mm 3 mps 760 mmHg 65%
    09:00 +17°C° 0 mm 3 mps 760 mmHg 58%
    10:00 +18°C° 0 mm 3 mps 760 mmHg 58%
    11:00 +19°C° 0 mm 3 mps 760 mmHg 59%
    12:00 +20°C° 0 mm 3 mps 759 mmHg 59%
    13:00 +20°C° 0 mm 3 mps 759 mmHg 60%
    14:00 +20°C° 0 mm 3 mps 759 mmHg 61%
    15:00 +21°C° 0 mm 3 mps 759 mmHg 62%
    16:00 +20°C° 0 mm 3 mps 759 mmHg 66%
    17:00 +20°C° 0 mm 3 mps 758 mmHg 70%
    18:00 +20°C° 0 mm 3 mps 758 mmHg 73%
    19:00 +18°C° 0 mm 3 mps 758 mmHg 79%
    20:00 +17°C° 0 mm 3 mps 759 mmHg 84%
    21:00 +14°C° 0 mm 3 mps 759 mmHg 89%
    22:00 +14°C° 0 mm 4 mps 759 mmHg 89%
    23:00 +13°C° 0 mm 4 mps 759 mmHg 89%

    Day after tomorrow, 31 May, Sunday

    Time Temperature Precipitation Wind Pressure Humidity
    00:00 +13°C° 0 mm 4 mps 759 mmHg 88%
    01:00 +12°C° 0 mm 4 mps 759 mmHg 88%
    02:00 +11°C° 0 mm 4 mps 759 mmHg 88%
    03:00 +11°C° 0 mm 4 mps 759 mmHg 88%
    04:00 +11°C° 0 mm 4 mps 759 mmHg 87%
    05:00 +11°C° 0 mm 4 mps 759 mmHg 86%
    06:00 +12°C° 0 mm 4 mps 759 mmHg 86%
    07:00 +13°C° 0 mm 4 mps 759 mmHg 81%
    08:00 +15°C° 0 mm 4 mps 760 mmHg 76%
    09:00 +17°C° 0 mm 4 mps 760 mmHg 71%
    10:00 +18°C° 0 mm 4 mps 760 mmHg 68%
    11:00 +19°C° 0 mm 4 mps 760 mmHg 65%
    12:00 +20°C° 0 mm 4 mps 760 mmHg 62%
    13:00 +21°C° 0 mm 3 mps 760 mmHg 62%
    14:00 +21°C° 0 mm 3 mps 759 mmHg 62%
    15:00 +21°C° 0 mm 2 mps 759 mmHg 61%
    16:00 +21°C° 0.1 mm 2 mps 759 mmHg 65%
    17:00 +20°C° 0.1 mm 3 mps 759 mmHg 69%
    18:00 +20°C° 0.1 mm 3 mps 759 mmHg 73%
    19:00 +18°C° 0 mm 3 mps 759 mmHg 78%
    20:00 +16°C° 0 mm 2 mps 760 mmHg 83%
    21:00 +15°C° 0 mm 2 mps 760 mmHg 88%
    22:00 +14°C° 0 mm 2 mps 760 mmHg 88%
    23:00 +12°C° 0 mm 3 mps 760 mmHg 89%

    1 June, Monday

    Time Temperature Precipitation Wind Pressure Humidity
    00:00 +12°C° 0 mm 3 mps 760 mmHg 89%
    01:00 +11°C° 0 mm 3 mps 760 mmHg 89%
    02:00 +11°C° 0 mm 3 mps 760 mmHg 89%
    03:00 +12°C° 0 mm 2 mps 760 mmHg 90%
    04:00 +13°C° 0 mm 2 mps 760 mmHg 89%
    05:00 +13°C° 0 mm 2 mps 760 mmHg 88%
    06:00 +14°C° 0 mm 2 mps 760 mmHg 87%
    07:00 +16°C° 0 mm 2 mps 760 mmHg 81%
    08:00 +18°C° 0 mm 1 mps 759 mmHg 74%
    09:00 +20°C° 0 mm 1 mps 759 mmHg 68%
    10:00 +19°C° 0 mm 2 mps 759 mmHg 66%
    11:00 +20°C° 0 mm 2 mps 759 mmHg 64%
    12:00 +20°C° 0 mm 2 mps 759 mmHg 61%
    13:00 +20°C° 0 mm 3 mps 759 mmHg 65%
    14:00 +20°C° 0 mm 3 mps 758 mmHg 68%
    15:00 +19°C° 0 mm 3 mps 758 mmHg 72%
    16:00 +19°C° 0.1 mm 2 mps 758 mmHg 74%
    17:00 +19°C° 0.1 mm 2 mps 757 mmHg 77%
    18:00 +18°C° 0.1 mm 2 mps 757 mmHg 79%
    19:00 +17°C° 0 mm 2 mps 757 mmHg 83%
    20:00 +15°C° 0 mm 1 mps 757 mmHg 86%
    21:00 +14°C° 0 mm 1 mps 757 mmHg 90%
    22:00 +13°C° 0 mm 1 mps 757 mmHg 90%
    23:00 +13°C° 0 mm 1 mps 757 mmHg 90%

    2 June, Tuesday

    Time Temperature Precipitation Wind Pressure Humidity
    00:00 +12°C° 0 mm 1 mps 757 mmHg 90%
    01:00 +12°C° 0 mm 1 mps 756 mmHg 91%
    02:00 +12°C° 0 mm 1 mps 756 mmHg 91%
    03:00 +11°C° 0 mm 1 mps 755 mmHg 91%
    04:00 +12°C° 0 mm 1 mps 755 mmHg 90%
    05:00 +12°C° 0 mm 0 mps 755 mmHg 89%
    06:00 +13°C° 0 mm 0 mps 754 mmHg 87%
    07:00 +15°C° 0 mm 1 mps 754 mmHg 82%
    08:00 +18°C° 0 mm 1 mps 754 mmHg 76%
    09:00 +18°C° 0 mm 2 mps 754 mmHg 70%
    10:00 +18°C° 0.1 mm 2 mps 754 mmHg 72%
    11:00 +18°C° 0.1 mm 2 mps 753 mmHg 74%
    12:00 +18°C° 0.1 mm 3 mps 753 mmHg 76%
    13:00 +18°C° 0.3 mm 3 mps 752 mmHg 80%
    14:00 +17°C° 0.3 mm 4 mps 752 mmHg 83%
    15:00 +17°C° 0.3 mm 4 mps 752 mmHg 87%
    16:00 +15°C° 0.3 mm 4 mps 751 mmHg 90%
    17:00 +14°C° 0.3 mm 4 mps 751 mmHg 93%
    18:00 +13°C° 0.3 mm 3 mps 751 mmHg 95%
    19:00 +13°C° 0.1 mm 4 mps 751 mmHg 96%
    20:00 +13°C° 0.1 mm 4 mps 750 mmHg 96%
    21:00 +13°C° 0.1 mm 4 mps 750 mmHg 96%
    22:00 +12°C° 0.1 mm 4 mps 750 mmHg 96%
    23:00 +12°C° 0.1 mm 3 mps 750 mmHg 96%

    3 June, Wednesday

    Time Temperature Precipitation Wind Pressure Humidity
    00:00 +12°C° 0.1 mm 3 mps 750 mmHg 96%
    01:00 +12°C° 0 mm 3 mps 749 mmHg 96%
    02:00 +12°C° 0 mm 3 mps 749 mmHg 96%
    03:00 +12°C° 0 mm 3 mps 748 mmHg 96%
    04:00 +12°C° 0 mm 3 mps 748 mmHg 96%
    05:00 +13°C° 0 mm 3 mps 748 mmHg 96%
    06:00 +13°C° 0 mm 3 mps 748 mmHg 95%
    07:00 +14°C° 0 mm 4 mps 748 mmHg 93%
    08:00 +15°C° 0 mm 5 mps 748 mmHg 91%
    09:00 +15°C° 0 mm 6 mps 748 mmHg 89%
    10:00 +16°C° 0.1 mm 5 mps 748 mmHg 88%
    11:00 +16°C° 0.1 mm 5 mps 748 mmHg 86%
    12:00 +17°C° 0.1 mm 5 mps 748 mmHg 85%
    13:00 +19°C° 0.3 mm 6 mps 748 mmHg 81%
    14:00 +20°C° 0.3 mm 6 mps 748 mmHg 78%
    15:00 +21°C° 0.3 mm 7 mps 748 mmHg 74%
    16:00 +20°C° 0.2 mm 7 mps 748 mmHg 76%
    17:00 +20°C° 0.2 mm 7 mps 748 mmHg 78%
    18:00 +18°C° 0.2 mm 7 mps 748 mmHg 80%
    19:00 +17°C° 0 mm 6 mps 748 mmHg 83%
    20:00 +16°C° 0 mm 6 mps 749 mmHg 85%
    21:00 +14°C° 0 mm 6 mps 749 mmHg 87%
    22:00 +14°C° 0 mm 5 mps 749 mmHg 89%
    23:00 +13°C° 0 mm 5 mps 749 mmHg 90%
    Show more